sat.trackr.live / text

‹ back to catalog

STARLINK-11310 [DTC]

NORAD 61212 · 2024-171N

PAYLOAD ACTIVE UNKNOWN

§ Identity

Operator
Country
US
Launch date
2024-09-20
Launch site
AFWTR
Launch vehicle
Mass (kg)
RCS (m²)

Purposes: comms

External: N2YO · Heavens-Above · Gunter

§ Orbital elements

Epoch: 2026-05-24T18:19:26.450976Z

Period
91.74 min
Inclination
53.1591°
Eccentricity
0.0001143
Mean motion
15.69704717 rev/d
Perigee alt
359.0 km
Apogee alt
360.5 km
Semi-major
6,737.9 km
B*
2.8611e-5
RAAN
161.4867°
Arg perigee
72.6990°
Mean anomaly
287.4153°
Rev number
9,634

§ Raw data

STARLINK-11310 [DTC]1 61212U 24171N   26144.76350059  .00002878  00000+0  28611-4 0  99952 61212  53.1591 161.4867 0001143  72.6990 287.4153 15.69704717 96342

JSON: /api/v1/satellites/61212 · /tle

For live sub-satellite position, see the globe view (requires WebGL).

§ Visibility from observer

Set your observer location to see the next 7 days of passes ≥ 10°. The values pass through the URL so the page stays shareable.

No JS? Fill the form by hand. The geolocation button needs JavaScript.